Date String (YYYY-MM-DD hh:mm:ss) UTC,Instrument flags,Ambient pressure (hPa),Sample flow (lpm),Bypass flow (lpm),Sample temperature (°C),Ambient temperature (°C),ASC tube jacket temperature (°C),LED temperature (°C),Box temperature (°C),Sample RH (%),Span deviation,Mass concentration (μg/m³),Mass concentration (μg/m³),Mass concentration (μg/m³)
DateTimeUTC,F1_M11,P_M11,Q1_M11,Q2_M11,T1_M11,T2_M11,T3_M11,T4_M11,T5_M11,U1_M11,ZSPAN_M11,X0_M11,X2_M11,X1_M11
2022-11-01 05:00:00,,0824.0,4.99,0.00,29.6,27.9,00.0,38.6,31.3,09.0,0000.0,0003.38,0002.28,0001.86
2022-11-01 05:01:00,,0823.9,5.00,0.00,29.6,27.9,00.0,38.6,31.3,09.0,0000.0,0003.22,0002.19,0001.82
2022-11-01 05:02:00,,0823.9,5.00,0.00,29.6,27.8,00.0,38.6,31.3,08.9,0000.0,0003.01,0002.10,0001.79
2022-11-01 05:03:00,,0824.0,5.00,0.00,29.6,27.8,00.0,38.6,31.3,08.8,0000.0,0003.00,0002.09,0001.78
2022-11-01 05:04:00,,0823.9,5.00,0.00,29.6,27.8,00.0,38.6,31.3,08.8,0000.0,0002.96,0002.07,0001.77
2022-11-01 05:05:00,,0824.0,5.00,0.00,29.6,27.8,00.0,38.5,31.2,08.8,0000.0,0002.89,0002.03,0001.76
2022-11-01 05:06:00,,0823.9,5.00,0.00,29.6,27.8,00.0,38.5,31.2,08.9,0000.0,0003.03,0002.06,0001.77
2022-11-01 05:07:00,,0824.0,5.00,0.00,29.6,27.8,00.0,38.5,31.3,08.8,0000.0,0003.09,0002.05,0001.76
2022-11-01 05:08:00,,0823.9,4.99,0.00,29.6,27.8,00.0,38.5,31.3,08.7,0000.0,0003.09,0002.03,0001.78
2022-11-01 05:09:00,,0823.9,5.00,0.00,29.6,27.8,00.0,38.5,31.2,08.7,0000.0,0002.91,0002.04,0001.77
2022-11-01 05:10:00,,0823.9,5.00,0.00,29.6,27.8,00.0,38.5,31.2,08.5,0000.0,0002.94,0002.08,0001.79
2022-11-01 05:11:00,,0823.9,5.01,0.00,29.6,27.8,00.0,38.5,31.3,08.4,0000.0,0002.92,0002.07,0001.80
2022-11-01 05:12:00,,0824.0,5.00,0.00,29.6,27.8,00.0,38.5,31.3,08.4,0000.0,0003.01,0002.12,0001.81
2022-11-01 05:13:00,,0823.9,4.99,0.00,29.6,27.8,00.0,38.5,31.2,08.4,0000.0,0003.12,0002.18,0001.83
2022-11-01 05:14:00,,0824.0,5.02,0.00,29.5,27.8,00.0,38.5,31.2,08.3,0000.0,0003.46,0002.26,0001.85
2022-11-01 05:15:00,,0824.0,4.99,0.00,29.5,27.8,00.0,38.5,31.3,08.3,0000.0,0004.31,0002.35,0001.87
2022-11-01 05:16:00,,0824.0,5.01,0.00,29.5,27.8,00.0,38.5,31.3,08.6,0000.0,0005.26,0002.39,0001.88
2022-11-01 05:17:00,,0824.0,5.00,0.00,29.5,27.8,00.0,38.5,31.2,08.8,0000.0,0005.44,0002.40,0001.88
2022-11-01 05:18:00,,0824.0,5.02,0.00,29.5,27.7,00.0,38.4,31.2,08.9,0000.0,0005.44,0002.39,0001.88
2022-11-01 05:19:00,,0824.0,4.98,0.00,29.5,27.7,00.0,38.4,31.2,09.0,0000.0,0005.38,0002.39,0001.87
2022-11-01 05:20:00,,0824.0,5.01,0.00,29.5,27.7,00.0,38.4,31.2,08.9,0000.0,0005.29,0002.35,0001.86
2022-11-01 05:21:00,,0824.0,5.00,0.00,29.5,27.7,00.0,38.4,31.2,08.8,0000.0,0005.89,0002.34,0001.85
2022-11-01 05:22:00,,0824.0,4.99,0.00,29.5,27.7,00.0,38.4,31.1,08.5,0000.0,0006.12,0002.36,0001.86
2022-11-01 05:23:00,,0824.0,5.00,0.00,29.5,27.7,00.0,38.4,31.2,08.4,0000.0,0006.16,0002.33,0001.85
2022-11-01 05:24:00,,0824.0,5.01,0.00,29.5,27.7,00.0,38.4,31.1,08.0,0000.0,0006.13,0002.33,0001.86
2022-11-01 05:25:00,,0824.0,4.99,0.00,29.5,27.7,00.0,38.4,31.1,08.6,0000.0,0005.89,0002.30,0001.87
2022-11-01 05:26:00,,0824.0,5.02,0.00,29.4,27.7,00.0,38.4,31.1,09.0,0000.0,0005.10,0002.23,0001.86
2022-11-01 05:27:00,,0824.0,4.98,0.00,29.4,27.7,00.0,38.4,31.2,08.9,0000.0,0004.16,0002.21,0001.86
2022-11-01 05:28:00,,0824.0,5.00,0.00,29.4,27.6,00.0,38.4,31.1,09.0,0000.0,0005.47,0002.21,0001.86
2022-11-01 05:29:00,,0824.0,5.01,0.00,29.4,27.6,00.0,38.4,31.0,09.2,0000.0,0005.34,0002.21,0001.87
2022-11-01 05:30:00,,0824.0,4.99,0.00,29.4,27.6,00.0,38.3,31.0,09.2,0000.0,0005.43,0002.23,0001.88
2022-11-01 05:31:00,,0823.9,4.99,0.00,29.4,27.6,00.0,38.3,31.1,09.2,0000.0,0005.53,0002.27,0001.89
2022-11-01 05:32:00,,0824.0,5.00,0.00,29.4,27.6,00.0,38.3,31.1,09.1,0000.0,0004.87,0002.25,0001.88
2022-11-01 05:33:00,,0824.0,5.02,0.00,29.4,27.6,00.0,38.3,31.0,09.1,0000.0,0004.61,0002.23,0001.87
2022-11-01 05:34:00,,0824.0,5.00,0.00,29.4,27.6,00.0,38.3,31.0,09.2,0000.0,0004.60,0002.24,0001.86
2022-11-01 05:35:00,,0823.9,4.99,0.00,29.4,27.6,00.0,38.3,31.1,09.2,0000.0,0004.71,0002.27,0001.85
2022-11-01 05:36:00,,0824.0,5.00,0.00,29.3,27.6,00.0,38.3,31.1,09.2,0000.0,0004.64,0002.24,0001.84
2022-11-01 05:37:00,,0824.0,5.00,0.00,29.3,27.5,00.0,38.3,31.0,09.1,0000.0,0004.67,0002.26,0001.85
2022-11-01 05:38:00,,0824.0,5.00,0.00,29.3,27.5,00.0,38.3,31.0,09.1,0000.0,0004.63,0002.24,0001.86
2022-11-01 05:39:00,,0823.9,5.01,0.00,29.3,27.6,00.0,38.3,31.0,09.1,0000.0,0003.17,0002.21,0001.85
2022-11-01 05:40:00,,0823.9,4.99,0.00,29.3,27.5,00.0,38.3,31.0,09.1,0000.0,0003.04,0002.20,0001.86
2022-11-01 05:41:00,,0824.0,5.01,0.00,29.3,27.5,00.0,38.2,30.9,09.2,0000.0,0002.94,0002.17,0001.86
2022-11-01 05:42:00,,0824.0,5.01,0.00,29.3,27.5,00.0,38.2,30.9,09.2,0000.0,0002.84,0002.13,0001.85
2022-11-01 05:43:00,,0824.0,4.99,0.00,29.3,27.5,00.0,38.2,30.9,09.1,0000.0,0002.88,0002.15,0001.86
2022-11-01 05:44:00,,0824.0,5.01,0.00,29.3,27.5,00.0,38.2,31.0,09.1,0000.0,0002.90,0002.16,0001.87
2022-11-01 05:45:00,,0824.0,4.98,0.00,29.2,27.5,00.0,38.2,30.9,09.2,0000.0,0002.79,0002.14,0001.88
2022-11-01 05:46:00,,0824.0,5.01,0.00,29.2,27.5,00.0,38.2,30.9,09.2,0000.0,0002.65,0002.10,0001.89
2022-11-01 05:47:00,,0823.9,4.99,0.00,29.2,27.5,00.0,38.2,31.0,09.1,0000.0,0002.64,0002.09,0001.88
2022-11-01 05:48:00,,0824.0,4.99,0.00,29.2,27.5,00.0,38.2,31.0,09.1,0000.0,0002.66,0002.09,0001.86
2022-11-01 05:49:00,,0824.0,4.99,0.00,29.2,27.4,00.0,38.2,30.9,09.2,0000.0,0002.81,0002.12,0001.86
2022-11-01 05:50:00,,0824.0,5.00,0.00,29.2,27.4,00.0,38.2,30.9,09.2,0000.0,0002.97,0002.15,0001.86
2022-11-01 05:51:00,,0824.0,5.00,0.00,29.2,27.4,00.0,38.2,30.9,09.3,0000.0,0003.53,0002.15,0001.85
2022-11-01 05:52:00,,0823.9,5.00,0.00,29.2,27.4,00.0,38.2,30.8,09.3,0000.0,0003.52,0002.16,0001.86
2022-11-01 05:53:00,,0824.0,5.00,0.00,29.2,27.4,00.0,38.2,30.9,09.2,0000.0,0003.60,0002.19,0001.87
2022-11-01 05:54:00,,0824.0,4.99,0.00,29.2,27.4,00.0,38.1,30.9,09.1,0000.0,0003.57,0002.18,0001.88
2022-11-01 05:55:00,,0824.0,5.01,0.00,29.2,27.4,00.0,38.1,30.9,09.1,0000.0,0003.53,0002.17,0001.88
2022-11-01 05:56:00,,0824.0,4.99,0.00,29.2,27.4,00.0,38.1,30.9,09.1,0000.0,0003.63,0002.19,0001.88
2022-11-01 05:57:00,,0824.0,5.02,0.00,29.2,27.4,00.0,38.1,30.8,09.1,0000.0,0003.69,0002.18,0001.88
2022-11-01 05:58:00,,0824.0,4.99,0.00,29.2,27.4,00.0,38.1,30.9,09.1,0000.0,0003.74,0002.20,0001.88
2022-11-01 05:59:00,,0823.9,5.00,0.00,29.1,27.4,00.0,38.1,30.9,09.1,0000.0,0003.80,0002.20,0001.88
